Regional Weather Roundup
Issued by NWS Bismarck, ND

Home | Current Version | Previous Version | Text Only | Print | Product List | Glossary On
Versions: 1 2 3 4 5 6 7 8 9 10 11 12 13 14 15 16 17 18 19 20 21 22 23 24 25 26 27 28 29 30 31 32 33 34 35 36 37 38 39 40 41 42 43 44 45 46 47 48 49 50
000
ASUS43 KBIS 172020
RWRBIS

NWR BROADCAST TEXT
NATIONAL WEATHER SERVICE BISMARCK ND
200 PM CST WED DEC 17 2014

NOTE: "FAIR" INDICATES FEW OR NO CLOUDS BELOW 12,000 FEET WITH NO
SIGNIFICANT WEATHER AND/OR OBSTRUCTIONS TO VISIBILITY.


CITY           SKY/WX    TMP DP  RH WIND       PRES   REMARKS
WILLISTON      CLOUDY    20  13  74 S14       30.11F WCI   7
MINOT          PTSUNNY   16   9  74 SE8       30.19F WCI   5
MINOT AFB      MOSUNNY   17  12  82 SE12      30.20F WCI   4
BISMARCK       MOSUNNY   19  10  68 SE10      30.22F WCI   7
DICKINSON      LGT SNOW  19  14  81 SE10      30.06F WCI   7
GARRISON         N/A     16  11  80 SE12      30.17F WCI   3
HETTINGER ARPT CLOUDY    16  13  88 SE13      30.07F WCI   2
JAMESTOWN      SUNNY     17  10  74 CALM      30.26F
BEACH          CLOUDY    18  18 100 SE16G25   30.04F WCI   3
CARRINGTON     FAIR      16  14  93 MISG      30.26F
CROSBY         CLOUDY    19  14  79 S9G18     30.13S WCI   9
HARVEY         FAIR      18  10  73 SE8       30.24F WCI   7
HAZEN          MOCLDY    18  10  73 S8        30.19S WCI   7
LINTON         FAIR      18  14  86 SE10      30.20F WCI   6
MANDAN         FAIR      18  10  73 SE9       30.20F WCI   6
OAKES            N/A     18  12  79 CALM      30.28F
RUGBY          FAIR      16  10  79 SE7       30.25F WCI   6
STANLEY        MOCLDY    16  14  93 SE12      30.11F WCI   3
TIOGA          MOCLDY    16  16 100 S14       30.13F WCI   1
WATFORD CITY   CLOUDY    19  14  79 S14       30.09F WCI   6
$$

CITY           SKY/WX    TMP DP  RH WIND       PRES   REMARKS
GRAND FORKS    MOSUNNY   17  10  74 CALM      30.35F
GRAND FORKS AF SUNNY     16  12  83 E3        30.34F
DEVILS LAKE    SUNNY     14   1  57 S6        30.25F WCI   5
FARGO          SUNNY     19  11  70 N6        30.33F WCI  11
CANDO          FAIR      14  10  85 S6        30.27F WCI   5
CAVALIER       FAIR      16   9  73 CALM      30.35F
GWINNER        CLEAR     21  14  73 MISG      30.30F
LANGDON        FAIR      18   9  68 CALM      30.27F
ROLLA          FAIR      14   9  79 S6        30.23F WCI   5
WALHALLA         N/A     16  10  79 CALM      30.35F
$$

CITY           SKY/WX    TMP DP  RH WIND       PRES   REMARKS
ABERDEEN       SUNNY     19  11  70 E6        30.28F WCI  11
MOBRIDGE       MOSUNNY   20  11  68 S13       30.17F WCI   7
BUFFALO          N/A     19  16  88 SE12      29.95F WCI   7
RAPID CITY     CLOUDY    23  20  88 E6        29.98F WCI  16
GLASGOW        CLOUDY    22  16  78 E14       30.00F WCI   9
SIDNEY         CLOUDY    21  18  86 SE14      30.10F WCI   8
WOLF POINT     CLOUDY    22  16  78 SE7       30.07F WCI  13
GLENDIVE       CLOUDY    21  18  86 SE12      30.04S WCI   9
MILES CITY     CLOUDY    25  20  81 SE9       29.98F WCI  15
BAKER          CLOUDY    19  18  95 SE15      30.02F WCI   5
$$

CITY           SKY/WX    TMP DP  RH WIND       PRES   REMARKS
BILLINGS       CLOUDY    31  24  75 SW15      29.92F
GREAT FALLS    CLOUDY    35  30  82 S10       29.85F
REGINA         CLOUDY    18  14  86 S16       30.08F WCI   3
ESTEVAN        FLURRIES  18  12  79 SE13      30.13F WCI   4
$$




USA.gov is the U.S. government's official web portal to all federal, state and local government web resources and services.